Simultaneous Nadir Overpasses (SNOs) Predictions

Prediction of SNOs between GOES-16 and TERRA Satellite Orbit:

Table of predicted SNOs for the next 14.0 days since TLE Epoch: 12/5/2025
Index Date Time (GOES-16) GOES-16 Lat,Lon TERRA Lat,Lon Distance(km) Time Diff (sec)
1 12/06/2025 15:53:22 0.04,-104.70 -0.72,-101.23 395.42 80
2 12/07/2025 04:12:52 -0.04,-104.64 -0.30,-105.97 150.61 80
3 12/09/2025 03:50:36 -0.05,-104.64 0.68,-101.25 385.59 80
4 12/09/2025 16:09:56 0.05,-104.70 0.31,-105.96 143.07 80
5 12/11/2025 15:52:59 0.06,-104.71 -0.65,-101.23 394.31 80
6 12/12/2025 04:12:28 -0.05,-104.65 -0.36,-105.98 150.84 80
7 12/14/2025 03:50:11 -0.06,-104.66 0.64,-101.26 386.73 80
8 12/14/2025 16:09:31 0.05,-104.72 0.33,-105.96 142.22 80
9 12/16/2025 15:52:33 0.06,-104.72 -0.65,-101.24 395.76 80
10 12/17/2025 04:12:03 -0.05,-104.68 -0.34,-105.98 148.75 80
11 12/19/2025 03:49:45 -0.06,-104.68 0.67,-101.26 388.96 80
